User: anonymous   Login
Location: Berg
(47.2344°N, 9.5296°E)
Time: 02:42:05
(UTC+00:00)
Language:

deb Kosmos-1939 - Orbit

View from above orbital plane
View from above orbital plane
View from above satellite
View from above satellite

Ground track
Ground track

The orbit data is extracted from the following two-line orbital elements,

1 24893U 88032C   21216.49678684  .00000597  00000-0  55827-4 0  9993
2 24893  97.4594 215.3642 0038930  88.6994  32.7843 14.97082848562221
Epoch (UTC): 04 August 2021 11:55:22
Eccentricity: 0.0038930
inclination: 97.4594°
perigee height: 549 km
apogee height: 603 km
right ascension of ascending node: 215.3642°
argument of perigee: 88.6994°
revolutions per day: 14.97082848
mean anomaly at epoch: 32.7843°
orbit number at epoch: 56222

The dashed part of the orbit path shows where the satellite is in the earth's shadow,  

DLR